Regional Weather Roundup
Issued by NWS

Home | Current Version | Previous Version | Graphics & Text | Print | Product List | Glossary On
Versions: 1 2 3 4 5 6 7 8 9 10 11 12 13 14 15 16 17 18 19 20 21 22 23 24 25 26 27 28 29 30 31 32 33 34 35 36 37 38 39 40 41 42 43 44 45 46 47 48 49 50
000
ASUS43 KMKX 011821
RWRWI

WISCONSIN REGIONAL WEATHER ROUNDUP
NATIONAL WEATHER SERVICE MILWAUKEE/SULLIVAN WI
100 PM CDT FRI AUG 01 2014

NOTE: "FAIR" INDICATES FEW OR NO CLOUDS BELOW 12,000 FEET WITH NO
SIGNIFICANT WEATHER AND/OR OBSTRUCTIONS TO VISIBILITY.

WIZ001-002-006>008-014>016-023>028-011900-
NORTHWEST WISCONSIN

CITY           SKY/WX    TMP DP  RH WIND       PRES   REMARKS
SUPERIOR ARPT  SUNNY     68  55  61 NE3       30.08R
6HR MIN TEMP:  56; 6HR MAX TEMP:  69;

ASHLAND        SUNNY     76  55  48 CALM      30.08S
6HR MIN TEMP:  53; 6HR MAX TEMP:  76;

HAYWARD        SUNNY     78  53  41 NW3       30.08S
6HR MIN TEMP:  54; 6HR MAX TEMP:  78;

SIREN          MOSUNNY   79  56  45 N5        30.08R HX  80
6HR MIN TEMP:  57; 6HR MAX TEMP:  79;

RICE LAKE      PTSUNNY   76  59  55 N5        30.08S
6HR MIN TEMP:  58; 6HR MAX TEMP:  78;

LADYSMITH      SUNNY     77  58  51 N3        30.09S
6HR MIN TEMP:  56; 6HR MAX TEMP:  77;

EAU CLAIRE     PTSUNNY   80  62  54 NW6       30.05F HX  81
6HR MIN TEMP:  63; 6HR MAX TEMP:  81;

MENOMONIE      PTCLDY    82  60  48 W6        30.06S HX  82
6HR MIN TEMP:  60; 6HR MAX TEMP:  82;

NEW RICHMOND   SUNNY     80  55  42 N3        30.07S HX  80
6HR MIN TEMP:  59; 6HR MAX TEMP:  81;

OSCEOLA        SUNNY     80  55  42 W3        30.10R HX  80
6HR MIN TEMP:  57; 6HR MAX TEMP:  80;

$$

WIZ003>005-009-010-017-018-011900-
NORTH CENTRAL WISCONSIN

CITY           SKY/WX    TMP DP  RH WIND       PRES   REMARKS
WOODRUFF       SUNNY     80  52  38 N7        30.09S HX  80
6HR MIN TEMP:  52; 6HR MAX TEMP:  80;

RHINELANDER    SUNNY     75  52  44 NW7       30.09S
6HR MIN TEMP:  53; 6HR MAX TEMP:  76;

EAGLE RIVER    SUNNY     74  47  37 CALM      30.08F
6HR MIN TEMP:  48; 6HR MAX TEMP:  74;

LAND O LAKES   SUNNY     74  46  37 N8        30.10S
6HR MIN TEMP:  48; 6HR MAX TEMP:  75;

PHILLIPS       MOSUNNY   76  56  51 SW3       30.08S
6HR MIN TEMP:  55; 6HR MAX TEMP:  76;

TOMAHAWK       MOSUNNY   76  56  50 CALM      30.08S
6HR MIN TEMP:  49; 6HR MAX TEMP:  76;

MEDFORD        PTSUNNY   74  62  65 W5        30.07F
6HR MIN TEMP:  54; 6HR MAX TEMP:  76;

MERRILL        PTSUNNY   78  60  53 NE3       30.06F
6HR MIN TEMP:  52; 6HR MAX TEMP:  78;

$$

WIZ029-030-035-036-043>047-011900-
CENTRAL WISCONSIN

CITY           SKY/WX    TMP DP  RH WIND       PRES   REMARKS
WAUSAU         MOSUNNY   79  58  48 VRB3      30.05S HX  80
6HR MIN TEMP:  57; 6HR MAX TEMP:  79;

MOSINEE        MOSUNNY   77  64  65 S7        30.07F
MARSHFIELD     MOSUNNY   79  65  62 VRB3      30.07F HX  81
6HR MIN TEMP:  60; 6HR MAX TEMP:  79; 6HR PCP: TRACE;

STEVENS POINT  PTSUNNY   73  61  65 SW7       30.06F
6HR MIN TEMP:  55; 6HR MAX TEMP:  75;

WAUPACA        PTSUNNY   83  59  43 SW5       30.05F HX  83
6HR MIN TEMP:  60; 6HR MAX TEMP:  82;

WAUTOMA        MOSUNNY   79  61  53 W6        30.07S HX  80
6HR MIN TEMP:  59; 6HR MAX TEMP:  83;

WISC RAPIDS    MOSUNNY   76  64  66 W3        30.08F
6HR MIN TEMP:  59; 6HR MAX TEMP:  76; 6HR PCP:  0.16;

CAMP DOUGLAS   MOSUNNY   81  63  54 W10       30.07S HX  82
$$

WIZ011>013-019>022-031-037>040-048>050-011900-
NORTHEAST WISCONSIN

CITY           SKY/WX    TMP DP  RH WIND       PRES   REMARKS
ANTIGO         PTSUNNY   75  57  53 N7        30.08S
6HR MIN TEMP:  53; 6HR MAX TEMP:  76;

STURGEON BAY   SUNNY     73  61  64 E7        30.06S
6HR MIN TEMP:  57; 6HR MAX TEMP:  75;

GREEN BAY      SUNNY     79  64  60 SW5       30.05S HX  81
6HR MIN TEMP:  60; 6HR MAX TEMP:  80;

MANITOWOC      SUNNY     73  64  73 E9        30.05F
APPLETON       MOSUNNY   79  61  53 VRB3      30.07S HX  80
CLINTONVILLE   MOSUNNY   81  57  44 SW7       30.04F HX  81
OSHKOSH        SUNNY     80  63  55 VRB5      30.05F HX  81
6HR MIN TEMP:  64; 6HR MAX TEMP:  80;

$$

WIZ032>034-041-042-053>061-011900-
SOUTHWEST WISCONSIN

CITY           SKY/WX    TMP DP  RH WIND       PRES   REMARKS
LA CROSSE      SUNNY     82  59  45 SW5       30.07S HX  82
6HR MIN TEMP:  64; 6HR MAX TEMP:  82;

SPARTA         SUNNY     80  58  46 W7        30.08S HX  81
6HR MIN TEMP:  56; 6HR MAX TEMP:  80;

VIROQUA        FAIR      78  59  52 NW6       30.10S HX  80
6HR MIN TEMP:  60; 6HR MAX TEMP:  78;

BOSCOBEL       SUNNY     85  56  37 VRB5      30.08S HX  84
6HR MIN TEMP:  58; 6HR MAX TEMP:  86;

PRAIRIE DU CHI MOSUNNY   82  52  34 W6        30.07S HX  81
PLATTEVILLE    PTSUNNY   80  55  43 CALM      30.10F HX  80
6HR MIN TEMP:  59; 6HR MAX TEMP:  80;

$$

WIZ056-057-062-063-064-067-068-011900-
SOUTH CENTRAL WISCONSIN

CITY           SKY/WX    TMP DP  RH WIND       PRES   REMARKS
BARABOO/DELLS  SUNNY     82  52  34 W5        30.07F HX  81
6HR MIN TEMP:  60; 6HR MAX TEMP:  83;

LONE ROCK      MOSUNNY   86  60  41 VRB6      30.07F HX  86
6HR MIN TEMP:  59; 6HR MAX TEMP:  86;

WATERTOWN      SUNNY     80  59  49 CALM      30.07S HX  80
6HR MIN TEMP:  58; 6HR MAX TEMP:  80;

MADISON        MOSUNNY   82  58  43 VRB5      30.07F HX  82
6HR MIN TEMP:  60; 6HR MAX TEMP:  83;

MIDDLETON      FAIR      82  54  39 CALM      30.08F HX  81
6HR MIN TEMP:  59; 6HR MAX TEMP:  83;

MONROE         MOSUNNY   79  54  41 CALM      30.09F
JANESVILLE     MOSUNNY   81  52  36 CALM      30.07  HX  80
$$

WIZ051-052-058>065-066-070>072-011900-
SOUTHEAST WISCONSIN

CITY           SKY/WX    TMP DP  RH WIND       PRES   REMARKS
MILWAUKEE      MOSUNNY   81  54  39 SW7       30.07F HX  81
6HR MIN TEMP:  66; 6HR MAX TEMP:  83;

WAUKESHA       MOSUNNY   72  57  60 W8        30.10S
MILWAUKEE/TIMM SUNNY     81  54  39 W7        30.07F HX  80
RACINE         SUNNY     80  56  43 W5        30.09F HX  80
6HR MIN TEMP:  64; 6HR MAX TEMP:  82;

BURLINGTON     MOSUNNY   79  55  43 SW3       30.08F
6HR MIN TEMP:  56; 6HR MAX TEMP:  79;

KENOSHA        MOSUNNY   82  59  45 SW5       30.08F HX  82
6HR MIN TEMP:  61; 6HR MAX TEMP:  82;

FOND DU LAC    SUNNY     81  60  48 SW7       30.06F HX  82
6HR MIN TEMP:  63; 6HR MAX TEMP:  81;

SHEBOYGAN      MOSUNNY   79  60  52 SW5       30.06F HX  80
6HR MIN TEMP:  61; 6HR MAX TEMP:  82;

WEST BEND      MOSUNNY   79  55  44 SW5       30.07F
JUNEAU         MOSUNNY   79  54  41 W7        30.08F
6HR MIN TEMP:  58; 6HR MAX TEMP:  79;

$$

LSZ147-162-011900-
LAKE SUPERIOR

STATION/POSITION TIME  TEMP    WIND        PRES    WAVE
                       AIR SEA DIR/SP/G            HT/PER
                 (UTC) (F)     (DEG/KT/KT) (MB)    (FT/S)
W MID LAKE BUOY  1750   49 45   70/  6/  8 1018.8S   0
PORT WING        1700   62      10/  3/  4 1018.3
SAXON HARBOR     1700             CALM     1018.6S
$$

LMZ867-665-643>646-011900-
LAKE MICHIGAN

STATION/POSITION TIME  TEMP    WIND        PRES    WAVE
                       AIR SEA DIR/SP/G            HT/PER
                 (UTC) (F)     (DEG/KT/KT) (MB)    (FT/S)
N MID LAKE BUOY  1750   60 58   90/  4/  4 1017.7S   0
NORTHPORT PIER   1700   65     120/  5/  6 1017.6S
SISTER BAY       1725   77     190/  8/ 10   N/A
KEWAUNEE LAKESHO 1800   62     150/  3/  5 1017.1F
SHEBOYGAN LAKESH 1800   71     170/ 15/ 15 1017.6F
PORT WASHINGTON  1740   71     160/  5/  6 1018.6S
ATWATER BUOY     1800   67     140/ 10     1019.0F
MILWAUKEE LAKESH 1800   69     130/ 11/ 12   N/A
S MID LAKE BUOY  1750   67 65  270/  2/  2 1018.9F   0
KENOSHA   LAKESH 1800   78     120/  5/  9 1017.9S
$$

TC  - TEMPERATURE IN CELSIUS
VSB - VISIBILITY IN STATUTE MILES
WCI - WIND CHILL INDEX
HX  - HEAT INDEX



USA.gov is the U.S. government's official web portal to all federal, state and local government web resources and services.